Flag for U.S.A. Weather past 2 weeks in Winston-Salem, North Carolina, U.S.A.

Now
59 °F

Passing clouds.


Feels Like: 57 °F
Forecast: 45 / 66 °F
Wind: 13 mph from Northwest

Location: Smith Reynolds Airport

Current Time: Apr 27, 2015 at 11:38:51 AM

Latest Report: Apr 27, 2015 at 10:54 AM


Visibility: 10 mi

Pressure: 29.87 "Hg

Humidity: 38%

Dew point: 33 °F

Location of Winston-SalemLocation

Historic Weather in Winston-Salem — Graph

°F

Winston-Salem temperature yesterday

Maximum temperature yesterday: 54 °F (at 5:54 PM)
Minimum temperature yesterday: 43 °F (at 3:54 AM)
Average temperature yesterday: 47 °F

Past Weeks' High & Low Weather Summary

 TemperatureHumidityPressure
High79 °F (Apr 18, 2:54 PM)100% (Apr 18, 6:54 AM)30.40 "Hg (Apr 18, 6:54 AM)
Low40 °F (Apr 27, 5:54 AM)15% (Apr 23, 3:54 PM)29.59 "Hg (Apr 20, 6:54 PM)
Average59 °F69%29.97 "Hg
* Reported Apr 12 9:54 AM — Apr 27 9:54 AM, Winston-Salem, Weather by CustomWeather, © 2015

Note: Actual official high and low records may vary slightly from our data, if they occured in-between our weather recording intervals... More about our weather records

Advertising

Winston-Salem weather history for previous 24 hours

 ConditionsComfort  
Time TempWeatherWind HumidityBarometerVisibility
9:54 AM
Mon, Apr 27
57 °FSunny.9 mph51%29.86 "Hg10 mi
8:54 AM52 °FScattered clouds.10 mph64%29.84 "Hg10 mi
7:54 AM48 °FSunny.7 mph74%29.83 "Hg10 mi
6:54 AM44 °FClear.5 mph85%29.79 "Hg8 mi
6:03 AM41 °FFog.No wind93%29.79 "Hg1 mi
5:54 AM40 °FFog.No wind97%29.78 "Hg0 mi
4:54 AM42 °FClear.No wind92%29.77 "Hg7 mi
3:54 AM45 °FClear.No wind93%29.78 "Hg10 mi
2:54 AM47 °FClear.No wind90%29.78 "Hg10 mi
1:54 AM47 °FPassing clouds.3 mph90%29.80 "Hg10 mi
12:54 AM48 °FOvercast.No wind89%29.79 "Hg10 mi
11:54 PM
Sun, Apr 26
47 °FOvercast.No wind93%29.80 "Hg10 mi
10:54 PM47 °FPassing clouds.No wind90%29.79 "Hg10 mi
9:54 PM49 °FMostly cloudy.5 mph86%29.78 "Hg10 mi
8:54 PM50 °FOvercast.3 mph80%29.78 "Hg10 mi
7:54 PM50 °FPassing clouds.5 mph80%29.76 "Hg10 mi
6:54 PM53 °FScattered clouds.8 mph72%29.74 "Hg10 mi
5:54 PM54 °FCloudy.5 mph72%29.72 "Hg10 mi
4:54 PM53 °FMostly cloudy.9 mph74%29.73 "Hg10 mi
3:54 PM52 °FMostly cloudy.5 mph75%29.73 "Hg10 mi
3:01 PM50 °FOvercast.7 mph80%29.74 "Hg10 mi
1:54 PM49 °FOvercast.8 mph84%29.74 "Hg10 mi
12:54 PM47 °FMostly cloudy.9 mph86%29.73 "Hg10 mi
11:54 AM46 °FMostly cloudy.10 mph89%29.73 "Hg10 mi
Weather by CustomWeather, © 2015

See weather overviewHow to use our weather pages